Location: Arbon
(43.0005°N, 0.7472°E)
Time: 08:31:52
(UTC+00:00)

A-11 Canister half - Pass Details

Date: 26 November 2020
Orbit: 1517 x 1683 km, 47.2° (Epoch: 22 January)

Event Time Altitude Azimuth Distance (km) Brightness Sun altitude
Rises 19:54:03 0° 294° (WNW) 4,940 12.5 -37.7°
Reaches altitude 10° 19:57:51 10° 283° (WNW) 3,948 11.8 -38.4°
Maximum altitude 20:05:48 27° 231° (SW) 2,792 10.6 -39.8°
Enters shadow 20:11:44 16° 187° (S) 3,452 10.8 -40.9°
